TimeAST,TemperatureF,Dew PointF,Humidity,Sea Level PressureIn,VisibilityMPH,Wind Direction,Wind SpeedMPH,Gust SpeedMPH,PrecipitationIn,Events,Conditions,WindDirDegrees,DateUTC
12:00 AM,39.2,32.0,75,30.48,15.0,NNE,16.1,23.0,N/A,,Mostly Cloudy,20,2012-11-15 04:00:00
1:00 AM,39.2,32.0,75,30.47,15.0,NNE,15.0,-,N/A,,Mostly Cloudy,20,2012-11-15 05:00:00
2:00 AM,40,33,67,30.47,15,NNE,17.3,,,,Mostly Cloudy,30,2012-11-15 06:00:00
2:00 AM,39.2,33.8,81,30.46,15.0,NNE,16.1,25.3,N/A,,Mostly Cloudy,30,2012-11-15 06:00:00
3:00 AM,39.2,32.0,75,30.46,15.0,NNE,15.0,21.9,N/A,,Mostly Cloudy,20,2012-11-15 07:00:00
4:00 AM,41.0,32.0,70,30.44,15.0,NNE,16.1,21.9,N/A,,Mostly Cloudy,30,2012-11-15 08:00:00
5:00 AM,41.0,33.8,76,30.44,15.0,NNE,15.0,-,N/A,,Mostly Cloudy,30,2012-11-15 09:00:00
6:00 AM,39.2,33.8,81,30.44,15.0,NE,13.8,21.9,N/A,,Mostly Cloudy,40,2012-11-15 10:00:00
7:00 AM,39.2,33.8,81,30.43,15.0,NNE,12.7,23.0,N/A,,Mostly Cloudy,20,2012-11-15 11:00:00
8:00 AM,40,33,69,30.44,15,NNE,15.0,,,,Mostly Cloudy,30,2012-11-15 12:00:00
8:00 AM,39.2,33.8,81,30.43,15.0,NNE,17.3,24.2,N/A,,Mostly Cloudy,20,2012-11-15 12:00:00
9:00 AM,41.0,35.6,81,30.43,15.0,NNE,16.1,21.9,N/A,,Overcast,20,2012-11-15 13:00:00
10:00 AM,42.8,35.6,76,30.41,15.0,NNE,17.3,-,N/A,,Overcast,30,2012-11-15 14:00:00
11:00 AM,42.8,35.6,76,30.40,15.0,NNE,20.7,-,N/A,,Overcast,30,2012-11-15 15:00:00
12:00 PM,42.8,35.6,76,30.38,15.0,NNE,16.1,25.3,N/A,,Overcast,30,2012-11-15 16:00:00
1:00 PM,42.8,35.6,76,30.35,15.0,NNE,23.0,-,N/A,,Overcast,30,2012-11-15 17:00:00
2:00 PM,42,36,70,30.33,15,NNE,18.4,,,,Overcast,20,2012-11-15 18:00:00
2:00 PM,42.8,35.6,76,30.33,15.0,NNE,18.4,28.8,N/A,,Overcast,20,2012-11-15 18:00:00
3:00 PM,42.8,35.6,76,30.34,15.0,NNE,12.7,21.9,N/A,,Overcast,30,2012-11-15 19:00:00
4:00 PM,41.0,35.6,81,30.35,15.0,North,13.8,20.7,N/A,,Overcast,10,2012-11-15 20:00:00
5:00 PM,41.0,35.6,81,30.33,15.0,NNE,13.8,-,N/A,,Overcast,30,2012-11-15 21:00:00
6:00 PM,41.0,37.4,87,30.31,15.0,NNE,10.4,-,N/A,,Overcast,20,2012-11-15 22:00:00
7:00 PM,41.0,37.4,87,30.30,15.0,North,9.2,-,N/A,,Overcast,360,2012-11-15 23:00:00
7:37 PM,41.0,39.2,93,30.30,12.0,North,10.4,-,N/A,Rain,Light Rain Showers,10,2012-11-15 23:37:00
8:00 PM,41,40,95,30.29,6,North,10.4,,,Rain,Light Drizzle,10,2012-11-16 00:00:00
8:00 PM,41.0,39.2,93,30.29,6.0,North,11.5,-,N/A,,Light Drizzle,10,2012-11-16 00:00:00
8:46 PM,41.0,41.0,100,30.28,2.5,North,8.1,-,N/A,,Light Drizzle,10,2012-11-16 00:46:00
9:00 PM,41.0,41.0,100,30.27,2.5,North,11.5,-,N/A,,Light Drizzle,10,2012-11-16 01:00:00
10:00 PM,41.0,41.0,100,30.25,2.0,NNE,10.4,-,N/A,,Light Drizzle,20,2012-11-16 02:00:00
11:00 PM,41.0,41.0,100,30.24,2.0,North,6.9,-,N/A,,Light Drizzle,360,2012-11-16 03:00:00